Total_Precipitation_Accumulation
0.05 0.04 0.03 0.03 0.03 0.02 0.02 0.03 0.03 0.02 0.02 0.03 0.03 0.03 0.03 0.03 0.02 0.02 0.02 0.03 0.02 0.01 0.02 0.00 0.01 0.01 0.00 0.01 0.00 0.00 0.00 0.01 0.00 0.00 0.00 0.00 0.00 0.00 0.00 0.00 0.00 0.00 0.00 0.00 0.00 0.00 0.00 0.00 0.00 0.00 0.00 0.00 0.00 0.00 0.00 0.00 0.00 0.00 0.00 0.00 0.00 0.00 0.00 0.00 0.00 0.00 0.00 0.00 0.00 0.00 0.00 0.00 0.00 0.00 0.00 0.00 0.00 0.00 0.00 0.00 0.03 0.01 0.13 0.11 0.06 0.13 0.09 0.11
0.03 0.03 0.03 0.03 0.03 0.03 0.04 0.03 0.03 0.03 0.02 0.02 0.02 0.02 0.03 0.02 0.03 0.01 0.02 0.02 0.02 0.01 0.01 0.02 0.01 0.00 0.01 0.00 0.00 0.00 0.00 0.00 0.00 0.00 0.00 0.00 0.00 0.00 0.00 0.00 0.00 0.00 0.00 0.00 0.00 0.00 0.00 0.00 0.00 0.00 0.00 0.00 0.00 0.00 0.00 0.00 0.00 0.00 0.00 0.00 0.00 0.00 0.00 0.00 0.00 0.00 0.00 0.00 0.00 0.00 0.00 0.00 0.00 0.00 0.00 0.03 0.00 0.00 0.01 0.03 0.05 0.08 0.10 0.08 0.14 0.09 0.10 0.14
0.02 0.02 0.03 0.03 0.03 0.04 0.04 0.03 0.03 0.03 0.04 0.03 0.03 0.03 0.02 0.02 0.02 0.03 0.02 0.01 0.01 0.01 0.01 0.00 0.01 0.01 0.00 0.00 0.00 0.00 0.00 0.00 0.00 0.00 0.00 0.00 0.00 0.00 0.00 0.00 0.00 0.00 0.00 0.00 0.00 0.00 0.00 0.00 0.00 0.00 0.00 0.00 0.00 0.00 0.00 0.00 0.00 0.00 0.00 0.00 0.00 0.00 0.00 0.00 0.00 0.00 0.00 0.00 0.00 0.00 0.00 0.00 0.00 0.00 0.00 0.00 0.01 0.01 0.03 0.11 0.06 0.10 0.15 0.15 0.16 0.16 0.15 0.18
0.02 0.03 0.03 0.03 0.03 0.03 0.03 0.03 0.03 0.03 0.03 0.04 0.03 0.03 0.03 0.03 0.02 0.02 0.03 0.02 0.01 0.01 0.01 0.01 0.00 0.00 0.00 0.00 0.00 0.00 0.00 0.00 0.00 0.00 0.00 0.00 0.00 0.00 0.00 0.00 0.00 0.00 0.00 0.00 0.00 0.00 0.00 0.00 0.00 0.00 0.00 0.00 0.00 0.00 0.00 0.00 0.00 0.00 0.00 0.00 0.00 0.00 0.00 0.00 0.00 0.00 0.00 0.00 0.00 0.00 0.00 0.00 0.00 0.00 0.00 0.01 0.04 0.03 0.09 0.07 0.14 0.14 0.31 0.17 0.11 0.16 0.18 0.28
0.03 0.03 0.02 0.02 0.02 0.02 0.03 0.03 0.02 0.03 0.04 0.03 0.03 0.03 0.04 0.03 0.02 0.02 0.02 0.01 0.02 0.02 0.02 0.01 0.00 0.00 0.00 0.00 0.00 0.00 0.00 0.00 0.00 0.00 0.00 0.00 0.00 0.00 0.00 0.00 0.00 0.00 0.00 0.00 0.00 0.00 0.00 0.00 0.00 0.00 0.00 0.00 0.00 0.00 0.00 0.00 0.00 0.00 0.00 0.00 0.00 0.00 0.00 0.00 0.00 0.00 0.00 0.00 0.00 0.00 0.00 0.00 0.00 0.00 0.00 0.01 0.03 0.19 0.06 0.02 0.04 0.19 0.13 0.21 0.16 0.19 0.23 0.51
0.02 0.02 0.02 0.02 0.02 0.03 0.04 0.04 0.04 0.03 0.04 0.03 0.03 0.02 0.02 0.03 0.03 0.03 0.02 0.02 0.02 0.01 0.01 0.01 0.01 0.00 0.00 0.00 0.00 0.00 0.00 0.00 0.00 0.00 0.00 0.00 0.00 0.00 0.00 0.00 0.00 0.00 0.00 0.00 0.00 0.00 0.00 0.00 0.00 0.00 0.00 0.00 0.00 0.00 0.00 0.00 0.00 0.00 0.00 0.00 0.00 0.00 0.00 0.00 0.00 0.00 0.00 0.00 0.00 0.00 0.00 0.00 0.00 0.00 0.00 0.00 0.00 0.03 0.02 0.03 0.06 0.10 0.22 0.30 0.20 0.20 0.26 0.55
0.02 0.02 0.01 0.02 0.02 0.03 0.04 0.04 0.04 0.03 0.03 0.04 0.03 0.02 0.02 0.02 0.02 0.02 0.03 0.02 0.02 0.01 0.00 0.01 0.00 0.00 0.00 0.00 0.00 0.00 0.00 0.00 0.00 0.00 0.00 0.00 0.00 0.00 0.00 0.00 0.00 0.00 0.00 0.00 0.00 0.00 0.00 0.00 0.00 0.00 0.00 0.00 0.00 0.00 0.00 0.00 0.00 0.00 0.00 0.00 0.00 0.00 0.00 0.00 0.00 0.00 0.00 0.00 0.00 0.00 0.00 0.00 0.00 0.00 0.00 0.00 0.00 0.00 0.02 0.19 0.01 0.06 0.15 0.13 0.27 0.59 0.42 0.30
0.02 0.01 0.02 0.02 0.02 0.02 0.03 0.03 0.03 0.02 0.02 0.03 0.03 0.02 0.02 0.02 0.03 0.02 0.02 0.02 0.03 0.02 0.01 0.00 0.00 0.00 0.00 0.00 0.00 0.00 0.00 0.00 0.00 0.00 0.00 0.00 0.00 0.00 0.00 0.00 0.00 0.00 0.00 0.00 0.00 0.00 0.00 0.00 0.00 0.00 0.00 0.00 0.00 0.00 0.00 0.00 0.00 0.00 0.00 0.00 0.00 0.00 0.00 0.00 0.00 0.00 0.00 0.00 0.00 0.00 0.00 0.00 0.00 0.00 0.00 0.00 0.00 0.00 0.01 0.02 0.02 0.05 0.15 0.16 0.14 0.21 0.55 0.75
0.02 0.01 0.02 0.02 0.02 0.01 0.01 0.02 0.01 0.02 0.03 0.02 0.02 0.02 0.03 0.03 0.04 0.03 0.01 0.02 0.02 0.03 0.01 0.00 0.00 0.00 0.00 0.00 0.00 0.00 0.00 0.00 0.00 0.00 0.00 0.00 0.00 0.00 0.00 0.00 0.00 0.00 0.00 0.00 0.00 0.00 0.00 0.00 0.00 0.00 0.00 0.00 0.00 0.00 0.00 0.00 0.00 0.00 0.00 0.00 0.00 0.00 0.00 0.00 0.00 0.00 0.00 0.00 0.00 0.00 0.00 0.00 0.00 0.00 0.00 0.00 0.00 0.00 0.00 0.01 0.01 0.05 0.11 0.17 0.13 0.18 0.31 0.56
0.02 0.02 0.02 0.02 0.02 0.01 0.01 0.02 0.02 0.02 0.03 0.03 0.03 0.03 0.04 0.03 0.02 0.03 0.02 0.02 0.02 0.01 0.01 0.01 0.00 0.00 0.00 0.00 0.00 0.00 0.00 0.00 0.00 0.00 0.00 0.00 0.00 0.00 0.00 0.00 0.00 0.00 0.00 0.00 0.00 0.00 0.00 0.00 0.00 0.00 0.00 0.00 0.00 0.00 0.00 0.00 0.00 0.00 0.00 0.00 0.00 0.00 0.00 0.00 0.00 0.00 0.00 0.00 0.00 0.00 0.00 0.00 0.00 0.00 0.01 0.01 0.00 0.01 0.00 0.01 0.04 0.04 0.08 0.12 0.15 0.28 0.50 0.33
0.03 0.02 0.01 0.01 0.02 0.01 0.02 0.02 0.02 0.02 0.03 0.02 0.03 0.03 0.03 0.03 0.03 0.02 0.02 0.01 0.01 0.02 0.01 0.00 0.01 0.00 0.00 0.00 0.00 0.00 0.00 0.00 0.00 0.00 0.00 0.00 0.00 0.00 0.00 0.00 0.00 0.00 0.00 0.00 0.00 0.00 0.00 0.00 0.00 0.00 0.00 0.00 0.00 0.00 0.00 0.00 0.00 0.00 0.00 0.00 0.00 0.00 0.00 0.00 0.00 0.00 0.00 0.00 0.00 0.00 0.00 0.00 0.00 0.00 0.00 0.01 0.01 0.00 0.00 0.02 0.03 0.03 0.08 0.09 0.10 0.29 0.48 0.38
0.06 0.03 0.01 0.00 0.03 0.03 0.02 0.02 0.02 0.02 0.02 0.03 0.03 0.02 0.02 0.02 0.02 0.02 0.02 0.02 0.01 0.01 0.00 0.00 0.01 0.02 0.01 0.00 0.00 0.00 0.00 0.00 0.00 0.00 0.00 0.00 0.00 0.00 0.00 0.00 0.00 0.00 0.00 0.00 0.00 0.00 0.00 0.00 0.00 0.00 0.00 0.00 0.00 0.00 0.00 0.00 0.00 0.00 0.00 0.00 0.00 0.00 0.00 0.00 0.00 0.00 0.00 0.00 0.00 0.00 0.00 0.00 0.00 0.00 0.00 0.00 0.00 0.01 0.00 0.01 0.06 0.04 0.08 0.08 0.08 0.24 0.27 0.38
0.03 0.02 0.04 0.02 0.02 0.04 0.02 0.01 0.01 0.02 0.02 0.02 0.02 0.02 0.02 0.01 0.01 0.02 0.01 0.02 0.01 0.01 0.00 0.01 0.00 0.00 0.00 0.00 0.00 0.00 0.00 0.00 0.00 0.00 0.00 0.00 0.00 0.00 0.00 0.00 0.00 0.00 0.00 0.00 0.00 0.00 0.00 0.00 0.00 0.00 0.00 0.00 0.00 0.00 0.00 0.00 0.00 0.00 0.00 0.00 0.00 0.00 0.00 0.00 0.00 0.00 0.00 0.00 0.00 0.00 0.00 0.00 0.00 0.00 0.00 0.00 0.01 0.01 0.01 0.02 0.04 0.07 0.14 0.16 0.20 0.20 0.51 0.38
0.05 0.04 0.04 0.02 0.01 0.01 0.02 0.02 0.01 0.01 0.01 0.01 0.01 0.01 0.01 0.01 0.02 0.01 0.01 0.02 0.02 0.02 0.03 0.02 0.01 0.03 0.01 0.00 0.00 0.00 0.00 0.00 0.00 0.00 0.00 0.00 0.00 0.00 0.00 0.00 0.00 0.00 0.00 0.00 0.00 0.00 0.00 0.00 0.00 0.00 0.00 0.00 0.00 0.00 0.00 0.00 0.00 0.00 0.00 0.00 0.00 0.00 0.00 0.00 0.00 0.00 0.00 0.00 0.00 0.00 0.00 0.00 0.00 0.00 0.00 0.00 0.00 0.00 0.01 0.02 0.06 0.12 0.18 0.25 0.32 0.22 0.21 0.37
0.04 0.09 0.10 0.02 0.04 0.02 0.03 0.02 0.02 0.01 0.01 0.01 0.02 0.02 0.01 0.01 0.01 0.01 0.01 0.01 0.03 0.00 0.01 0.05 0.03 0.01 0.01 0.00 0.00 0.00 0.00 0.00 0.00 0.00 0.00 0.00 0.00 0.00 0.00 0.00 0.00 0.00 0.00 0.00 0.00 0.00 0.00 0.00 0.00 0.00 0.00 0.00 0.00 0.00 0.00 0.00 0.00 0.00 0.00 0.00 0.00 0.00 0.00 0.00 0.00 0.00 0.00 0.00 0.00 0.00 0.00 0.00 0.00 0.00 0.00 0.00 0.01 0.00 0.00 0.02 0.05 0.15 0.12 0.17 0.31 0.24 0.14 0.18
0.08 0.10 0.10 0.06 0.05 0.04 0.01 0.03 0.01 0.02 0.01 0.02 0.01 0.01 0.01 0.01 0.01 0.01 0.01 0.01 0.00 0.01 0.01 0.01 0.01 0.01 0.00 0.00 0.00 0.00 0.00 0.00 0.00 0.00 0.00 0.00 0.00 0.00 0.00 0.00 0.00 0.00 0.00 0.00 0.00 0.00 0.00 0.00 0.00 0.00 0.00 0.00 0.00 0.00 0.00 0.00 0.00 0.00 0.00 0.00 0.00 0.00 0.00 0.00 0.00 0.00 0.00 0.00 0.00 0.00 0.00 0.00 0.00 0.00 0.01 0.01 0.01 0.01 0.01 0.02 0.05 0.09 0.36 0.22 0.38 0.30 0.13 0.16
0.11 0.06 0.11 0.05 0.06 0.03 0.02 0.01 0.02 0.01 0.01 0.01 0.00 0.00 0.01 0.01 0.00 0.00 0.01 0.03 0.02 0.00 0.04 0.00 0.00 0.00 0.01 0.00 0.00 0.00 0.00 0.00 0.00 0.00 0.00 0.00 0.00 0.00 0.00 0.00 0.00 0.00 0.00 0.00 0.00 0.00 0.00 0.00 0.00 0.00 0.00 0.00 0.00 0.00 0.00 0.00 0.00 0.00 0.00 0.00 0.00 0.00 0.00 0.00 0.00 0.00 0.00 0.00 0.00 0.00 0.00 0.00 0.00 0.00 0.01 0.02 0.00 0.01 0.01 0.01 0.02 0.03 0.16 0.12 0.19 0.16 0.28 0.12
0.23 0.07 0.11 0.17 0.04 0.05 0.02 0.01 0.02 0.01 0.01 0.00 0.01 0.00 0.01 0.00 0.00 0.01 0.01 0.00 0.01 0.00 0.01 0.00 0.00 0.00 0.00 0.00 0.00 0.00 0.00 0.00 0.00 0.00 0.00 0.00 0.00 0.00 0.00 0.00 0.00 0.00 0.00 0.00 0.00 0.00 0.00 0.00 0.00 0.00 0.00 0.00 0.00 0.00 0.00 0.00 0.00 0.00 0.00 0.00 0.00 0.00 0.00 0.00 0.00 0.00 0.00 0.00 0.00 0.00 0.00 0.00 0.00 0.00 0.01 0.00 0.01 0.01 0.01 0.01 0.02 0.05 0.11 0.20 0.18 0.11 0.19 0.34
0.06 0.12 0.06 0.19 0.07 0.08 0.04 0.02 0.01 0.01 0.01 0.00 0.01 0.01 0.00 0.01 0.01 0.00 0.00 0.01 0.00 0.01 0.00 0.00 0.00 0.00 0.02 0.00 0.00 0.00 0.00 0.00 0.00 0.00 0.00 0.00 0.00 0.00 0.00 0.00 0.00 0.00 0.00 0.00 0.00 0.00 0.00 0.00 0.00 0.00 0.00 0.00 0.00 0.00 0.00 0.00 0.00 0.00 0.00 0.00 0.00 0.01 0.00 0.00 0.00 0.00 0.00 0.00 0.00 0.00 0.00 0.00 0.00 0.00 0.01 0.02 0.01 0.01 0.00 0.01 0.01 0.04 0.12 0.28 0.24 0.37 0.42 0.24
0.10 0.09 0.10 0.10 0.12 0.07 0.05 0.02 0.02 0.01 0.01 0.01 0.01 0.00 0.00 0.00 0.04 0.00 0.00 0.02 0.00 0.00 0.00 0.00 0.00 0.00 0.00 0.00 0.00 0.00 0.00 0.00 0.00 0.00 0.00 0.00 0.00 0.00 0.00 0.00 0.00 0.00 0.00 0.00 0.00 0.00 0.00 0.00 0.00 0.00 0.00 0.00 0.00 0.00 0.00 0.00 0.00 0.00 0.00 0.00 0.01 0.00 0.00 0.00 0.00 0.00 0.00 0.00 0.00 0.00 0.00 0.00 0.00 0.00 0.00 0.01 0.01 0.01 0.01 0.01 0.02 0.02 0.03 0.16 0.71 0.26 0.57 0.34
0.13 0.07 0.10 0.08 0.15 0.12 0.04 0.04 0.01 0.01 0.02 0.04 0.01 0.00 0.01 0.00 0.00 0.03 0.00 0.00 0.00 0.00 0.00 0.00 0.00 0.00 0.00 0.00 0.00 0.00 0.00 0.00 0.00 0.00 0.00 0.00 0.00 0.00 0.00 0.00 0.00 0.00 0.00 0.00 0.00 0.00 0.00 0.00 0.00 0.01 0.00 0.00 0.00 0.00 0.00 0.00 0.00 0.00 0.00 0.00 0.00 0.00 0.00 0.00 0.00 0.00 0.00 0.00 0.00 0.00 0.00 0.00 0.00 0.00 0.00 0.01 0.01 0.01 0.01 0.01 0.01 0.01 0.02 0.05 0.10 0.21 0.17 0.50
0.08 0.12 0.15 0.10 0.12 0.13 0.07 0.03 0.01 0.01 0.02 0.02 0.01 0.00 0.00 0.00 0.00 0.00 0.00 0.03 0.00 0.00 0.00 0.00 0.00 0.00 0.00 0.00 0.00 0.00 0.00 0.00 0.00 0.00 0.00 0.00 0.00 0.00 0.00 0.00 0.00 0.00 0.00 0.00 0.00 0.00 0.00 0.00 0.00 0.00 0.00 0.00 0.00 0.00 0.00 0.00 0.00 0.00 0.00 0.00 0.00 0.00 0.00 0.00 0.00 0.00 0.00 0.00 0.00 0.00 0.00 0.00 0.00 0.00 0.01 0.01 0.01 0.01 0.01 0.01 0.01 0.01 0.03 0.08 0.07 0.21 0.20 0.36
0.19 0.09 0.11 0.15 0.14 0.14 0.15 0.04 0.02 0.01 0.03 0.03 0.01 0.00 0.00 0.00 0.00 0.00 0.00 0.00 0.00 0.00 0.00 0.00 0.00 0.00 0.00 0.00 0.00 0.00 0.00 0.00 0.00 0.00 0.00 0.00 0.00 0.00 0.00 0.00 0.00 0.00 0.00 0.00 0.00 0.00 0.00 0.00 0.00 0.00 0.00 0.00 0.00 0.00 0.00 0.00 0.00 0.00 0.00 0.00 0.00 0.00 0.00 0.03 0.00 0.00 0.00 0.00 0.00 0.00 0.00 0.01 0.00 0.00 0.00 0.02 0.02 0.02 0.01 0.01 0.02 0.03 0.12 0.07 0.15 0.11 0.17 0.27
0.10 0.18 0.16 0.15 0.12 0.12 0.11 0.02 0.01 0.05 0.03 0.00 0.00 0.00 0.00 0.00 0.00 0.00 0.00 0.00 0.00 0.00 0.00 0.00 0.00 0.00 0.00 0.00 0.00 0.00 0.00 0.00 0.00 0.00 0.00 0.00 0.00 0.00 0.00 0.00 0.00 0.00 0.00 0.00 0.00 0.00 0.00 0.00 0.00 0.00 0.00 0.00 0.00 0.00 0.00 0.00 0.00 0.00 0.00 0.00 0.00 0.00 0.00 0.00 0.08 0.00 0.00 0.00 0.00 0.00 0.01 0.01 0.01 0.01 0.01 0.02 0.01 0.01 0.01 0.01 0.02 0.04 0.07 0.06 0.07 0.08 0.09 0.09
0.21 0.25 0.28 0.10 0.23 0.10 0.08 0.03 0.01 0.00 0.00 0.00 0.00 0.00 0.00 0.00 0.00 0.00 0.00 0.00 0.00 0.00 0.00 0.00 0.00 0.00 0.00 0.00 0.00 0.00 0.00 0.00 0.00 0.00 0.00 0.00 0.00 0.00 0.00 0.00 0.00 0.00 0.00 0.00 0.00 0.00 0.00 0.01 0.00 0.00 0.00 0.00 0.00 0.00 0.00 0.00 0.00 0.00 0.00 0.00 0.00 0.00 0.00 0.00 0.00 0.00 0.00 0.02 0.00 0.00 0.02 0.06 0.03 0.01 0.01 0.01 0.01 0.01 0.01 0.04 0.04 0.08 0.05 0.03 0.06 0.09 0.22 0.25
0.17 0.14 0.12 0.11 0.09 0.06 0.05 0.01 0.01 0.01 0.01 0.00 0.00 0.00 0.00 0.00 0.02 0.00 0.00 0.02 0.01 0.01 0.00 0.00 0.00 0.00 0.00 0.00 0.00 0.00 0.00 0.00 0.00 0.00 0.00 0.00 0.00 0.00 0.00 0.00 0.00 0.00 0.00 0.00 0.00 0.00 0.00 0.00 0.00 0.00 0.00 0.00 0.00 0.00 0.00 0.00 0.00 0.00 0.01 0.00 0.00 0.00 0.00 0.00 0.00 0.00 0.00 0.03 0.08 0.00 0.03 0.07 0.02 0.03 0.03 0.02 0.03 0.03 0.02 0.02 0.04 0.05 0.07 0.06 0.11 0.09 0.10 0.11
0.28 0.16 0.12 0.14 0.12 0.11 0.13 0.03 0.03 0.01 0.02 0.00 0.00 0.00 0.00 0.00 0.02 0.02 0.03 0.02 0.05 0.02 0.00 0.00 0.00 0.00 0.00 0.00 0.00 0.00 0.01 0.01 0.00 0.00 0.00 0.00 0.00 0.00 0.00 0.00 0.00 0.00 0.00 0.00 0.00 0.00 0.00 0.00 0.00 0.00 0.00 0.00 0.00 0.00 0.00 0.00 0.00 0.01 0.01 0.00 0.00 0.00 0.00 0.00 0.00 0.00 0.01 0.00 0.00 0.00 0.00 0.09 0.05 0.05 0.04 0.02 0.02 0.04 0.03 0.05 0.05 0.06 0.09 0.10 0.11 0.11 0.24 0.10
0.16 0.14 0.10 0.09 0.09 0.11 0.08 0.04 0.02 0.03 0.03 0.05 0.01 0.00 0.01 0.00 0.03 0.02 0.04 0.03 0.02 0.00 0.01 0.00 0.00 0.00 0.00 0.00 0.00 0.00 0.00 0.00 0.00 0.00 0.00 0.00 0.00 0.00 0.00 0.00 0.00 0.00 0.00 0.00 0.01 0.01 0.00 0.00 0.00 0.00 0.00 0.00 0.00 0.00 0.00 0.00 0.00 0.01 0.00 0.00 0.00 0.00 0.00 0.00 0.00 0.00 0.02 0.01 0.09 0.01 0.00 0.02 0.05 0.09 0.04 0.02 0.01 0.04 0.08 0.10 0.11 0.10 0.09 0.20 0.18 0.17 0.12 0.10
0.17 0.09 0.06 0.06 0.03 0.03 0.06 0.04 0.06 0.02 0.02 0.01 0.00 0.02 0.01 0.03 0.01 0.16 0.24 0.09 0.16 0.00 0.00 0.00 0.00 0.00 0.00 0.00 0.00 0.00 0.00 0.00 0.00 0.00 0.00 0.00 0.00 0.00 0.00 0.00 0.00 0.00 0.00 0.00 0.00 0.00 0.00 0.00 0.00 0.00 0.00 0.00 0.00 0.00 0.00 0.00 0.00 0.00 0.00 0.00 0.00 0.00 0.00 0.00 0.01 0.01 0.05 0.01 0.03 0.04 0.08 0.02 0.10 0.12 0.09 0.08 0.04 0.06 0.20 0.17 0.14 0.14 0.14 0.15 0.19 0.29 0.17 0.17
0.13 0.11 0.11 0.04 0.04 0.06 0.03 0.02 0.01 0.02 0.03 0.10 0.01 0.03 0.02 0.04 0.26 0.15 0.18 0.01 0.01 0.06 0.00 0.01 0.00 0.00 0.00 0.00 0.00 0.00 0.00 0.00 0.00 0.00 0.00 0.00 0.00 0.00 0.00 0.00 0.01 0.00 0.00 0.00 0.00 0.00 0.00 0.00 0.00 0.00 0.00 0.00 0.00 0.00 0.00 0.00 0.00 0.00 0.00 0.00 0.00 0.00 0.01 0.01 0.00 0.06 0.05 0.00 0.01 0.02 0.03 0.00 0.12 0.13 0.09 0.07 0.09 0.12 0.07 0.15 0.13 0.12 0.16 0.18 0.26 0.26 0.20 0.16
0.05 0.07 0.04 0.05 0.09 0.06 0.08 0.02 0.02 0.05 0.17 0.02 0.01 0.02 0.11 0.07 0.31 0.08 0.03 0.03 0.00 0.03 0.00 0.00 0.00 0.00 0.00 0.00 0.00 0.00 0.00 0.00 0.00 0.00 0.00 0.00 0.00 0.00 0.00 0.00 0.00 0.02 0.01 0.00 0.00 0.00 0.00 0.00 0.00 0.00 0.00 0.00 0.00 0.00 0.00 0.00 0.00 0.00 0.00 0.02 0.00 0.02 0.00 0.01 0.04 0.02 0.07 0.01 0.04 0.02 0.00 0.02 0.09 0.15 0.11 0.07 0.08 0.05 0.07 0.12 0.09 0.13 0.11 0.12 0.17 0.18 0.17 0.17
0.14 0.08 0.04 0.08 0.08 0.08 0.06 0.14 0.16 0.18 0.21 0.04 0.02 0.06 0.13 0.25 0.04 0.22 0.01 0.00 0.11 0.04 0.01 0.02 0.00 0.00 0.00 0.00 0.00 0.00 0.00 0.00 0.00 0.00 0.00 0.00 0.00 0.00 0.00 0.00 0.00 0.00 0.00 0.01 0.07 0.00 0.01 0.00 0.00 0.00 0.00 0.00 0.00 0.00 0.00 0.00 0.00 0.00 0.00 0.02 0.22 0.22 0.01 0.05 0.05 0.01 0.00 0.01 0.04 0.01 0.02 0.04 0.02 0.25 0.12 0.22 0.22 0.11 0.06 0.10 0.11 0.12 0.11 0.09 0.13 0.13 0.19 0.25
0.04 0.04 0.03 0.04 0.03 0.07 0.20 0.14 0.12 0.17 0.28 0.05 0.06 0.72 0.34 0.22 0.02 0.03 0.03 0.00 0.17 0.06 0.05 0.00 0.01 0.00 0.01 0.00 0.00 0.00 0.00 0.01 0.01 0.00 0.00 0.00 0.00 0.00 0.00 0.00 0.00 0.00 0.03 0.02 0.03 0.01 0.01 0.00 0.00 0.00 0.00 0.00 0.00 0.00 0.01 0.01 0.00 0.00 0.01 0.11 0.06 0.13 0.07 0.02 0.06 0.03 0.08 0.02 0.01 0.05 0.04 0.05 0.26 0.42 0.09 0.29 0.19 0.11 0.11 0.09 0.08 0.17 0.14 0.17 0.26 0.20 0.19 0.44
0.02 0.02 0.11 0.02 0.03 0.04 0.08 0.15 0.28 0.15 0.12 0.05 0.09 0.20 0.89 0.17 0.01 0.00 0.07 0.00 0.34 0.01 0.02 0.04 0.00 0.00 0.00 0.03 0.04 0.00 0.02 0.00 0.00 0.00 0.00 0.05 0.00 0.02 0.00 0.00 0.00 0.00 0.00 0.05 0.03 0.01 0.01 0.08 0.00 0.00 0.00 0.00 0.00 0.00 0.00 0.05 0.01 0.01 0.00 0.01 0.11 0.16 0.08 0.02 0.04 0.08 0.02 0.16 0.03 0.01 0.00 0.05 0.09 1.07 0.32 0.23 0.12 0.07 0.07 0.15 0.13 0.13 0.30 0.32 0.38 0.48 0.72 2.06
0.02 0.02 0.02 0.04 0.03 0.01 0.08 0.06 0.17 0.07 0.24 0.10 0.09 0.25 0.18 0.04 0.08 0.04 0.04 0.08 0.05 0.23 0.05 0.00 0.03 0.01 0.01 0.00 0.02 0.03 0.00 0.24 0.00 0.01 0.00 0.00 0.02 0.00 0.01 0.00 0.00 0.00 0.01 0.01 0.05 0.00 0.00 0.07 0.06 0.00 0.00 0.00 0.00 0.00 0.00 0.00 0.03 0.00 0.00 0.01 0.04 0.02 0.01 0.10 0.34 0.04 0.21 0.12 0.02 0.03 0.05 0.49 0.87 1.06 0.46 0.17 0.09 0.07 0.08 0.11 0.13 0.32 0.30 0.40 0.43 0.92 1.60 1.48
0.01 0.03 0.03 0.03 0.02 0.03 0.06 0.04 0.33 0.12 0.17 0.18 0.25 0.24 0.17 0.02 0.14 0.12 0.27 0.07 0.03 0.16 0.07 0.01 0.01 0.01 0.01 0.04 0.00 0.01 0.01 0.05 0.12 0.02 0.06 0.00 0.01 0.02 0.00 0.00 0.00 0.00 0.02 0.00 0.04 0.05 0.00 0.12 0.01 0.00 0.00 0.00 0.00 0.00 0.00 0.00 0.16 0.17 0.00 0.06 0.03 0.01 0.01 0.02 0.00 0.01 0.00 0.00 0.03 0.02 0.14 0.36 0.38 0.99 0.35 0.36 0.25 0.19 0.04 0.11 0.08 0.37 0.68 0.83 1.32 1.05 0.75 0.89
0.08 0.04 0.05 0.02 0.01 0.03 0.12 0.09 0.11 0.12 0.09 0.12 0.34 0.16 0.06 0.06 0.09 0.09 0.14 0.19 0.18 0.18 0.22 0.11 0.02 0.01 0.04 0.01 0.01 0.00 0.06 0.00 0.14 0.03 0.15 0.01 0.12 0.00 0.00 0.00 0.00 0.01 0.00 0.00 0.03 0.02 0.06 0.25 0.01 0.01 0.00 0.00 0.00 0.00 0.00 0.00 0.00 0.00 0.04 0.04 0.00 0.00 0.02 0.04 0.14 0.06 0.00 0.00 0.04 0.02 0.08 0.34 0.10 0.70 0.60 0.29 0.61 0.29 0.24 0.21 0.17 0.27 0.61 0.84 1.20 0.84 0.60 1.18
0.11 0.06 0.23 0.06 0.01 0.02 0.05 0.06 0.17 0.13 0.11 0.19 0.19 0.14 0.08 0.20 0.07 0.07 0.08 0.10 0.07 0.07 0.23 0.14 0.04 0.00 0.02 0.07 0.02 0.01 0.02 0.03 0.29 0.03 0.13 0.02 0.25 0.00 0.03 0.02 0.01 0.00 0.00 0.00 0.02 0.08 0.00 0.08 0.03 0.00 0.00 0.00 0.00 0.00 0.00 0.00 0.00 0.00 0.05 0.01 0.03 0.06 0.06 0.02 0.00 0.01 0.03 0.01 0.14 0.10 0.13 0.10 0.18 0.69 0.42 0.35 0.29 0.35 0.34 0.17 0.14 0.24 0.61 0.98 1.14 1.05 0.81 1.04
0.29 0.34 0.43 0.04 0.13 0.02 0.07 0.23 0.10 0.11 0.09 0.09 0.18 0.05 0.05 0.18 0.07 0.05 0.05 0.03 0.03 0.10 0.19 0.12 0.13 0.00 0.01 0.02 0.03 0.01 0.02 0.11 0.02 0.22 0.10 0.22 0.22 0.06 0.08 0.01 0.06 0.00 0.00 0.00 0.00 0.02 0.00 0.02 0.06 0.00 0.00 0.03 0.00 0.00 0.01 0.01 0.00 0.00 0.00 0.01 0.00 0.00 0.10 0.09 0.02 0.19 0.01 0.19 0.02 0.26 0.16 0.19 0.28 0.54 0.18 0.28 0.20 0.30 0.22 0.28 0.32 0.42 0.32 0.39 0.36 0.39 0.46 0.53
0.53 0.44 0.85 0.05 0.09 0.05 0.27 0.02 0.03 0.05 0.08 0.06 0.04 0.08 0.02 0.12 0.06 0.03 0.03 0.01 0.11 0.17 0.24 0.29 0.03 0.12 0.00 0.02 0.01 0.05 0.09 0.08 0.10 0.35 0.08 0.29 0.16 0.05 0.05 0.00 0.05 0.01 0.00 0.00 0.01 0.00 0.07 0.00 0.14 0.04 0.00 0.00 0.11 0.00 0.01 0.01 0.10 0.01 0.00 0.01 0.00 0.01 0.08 0.01 0.12 0.05 0.10 0.10 0.07 0.15 0.13 0.52 0.65 0.26 0.29 0.22 0.52 0.40 0.28 0.23 0.34 0.48 0.85 0.63 1.11 1.08 0.81 0.38
0.31 0.83 0.88 0.23 0.10 0.10 0.20 0.01 0.06 0.06 0.02 0.01 0.07 0.07 0.03 0.11 0.14 0.07 0.02 0.01 0.06 0.05 0.11 0.10 0.11 0.12 0.04 0.02 0.02 0.00 0.02 0.03 0.08 0.21 0.08 0.15 0.12 0.39 0.03 0.07 0.01 0.19 0.00 0.02 0.00 0.04 0.02 0.00 0.02 0.13 0.02 0.01 0.02 0.00 0.00 0.00 0.01 0.01 0.01 0.03 0.02 0.08 0.13 0.13 0.08 0.00 0.10 0.03 0.11 0.12 0.24 0.49 0.55 0.19 0.56 0.53 0.35 0.79 0.58 0.59 0.59 0.72 0.58 0.80 0.91 0.65 0.66 0.97
0.48 0.94 1.20 0.29 0.17 0.01 0.06 0.22 0.06 0.08 0.05 0.09 0.11 0.03 0.12 0.04 0.10 0.08 0.04 0.02 0.03 0.07 0.02 0.04 0.01 0.03 0.04 0.02 0.02 0.01 0.00 0.01 0.08 0.13 0.11 0.24 0.21 0.10 0.12 0.01 0.01 0.03 0.13 0.20 0.11 0.04 0.02 0.03 0.08 0.06 0.09 0.41 0.08 0.03 0.00 0.00 0.00 0.00 0.00 0.02 0.00 0.05 0.02 0.10 0.08 0.16 0.05 0.05 0.05 0.19 0.16 0.61 0.60 0.28 1.11 1.09 0.53 0.49 0.61 0.53 0.44 0.61 0.66 0.72 0.79 0.90 0.41 0.53
0.68 1.81 1.10 0.33 0.04 0.02 0.11 0.24 0.09 0.09 0.12 0.18 0.04 0.04 0.03 0.10 0.13 0.09 0.07 0.06 0.03 0.01 0.04 0.04 0.06 0.09 0.02 0.00 0.01 0.02 0.00 0.03 0.03 0.21 0.10 0.19 0.18 0.14 0.05 0.07 0.01 0.08 0.04 0.19 0.02 0.03 0.00 0.06 0.02 0.08 0.04 0.05 0.01 0.03 0.04 0.01 0.01 0.00 0.00 0.00 0.01 0.13 0.08 0.09 0.22 0.26 0.17 0.21 0.07 0.13 0.04 0.62 0.29 0.47 0.63 0.87 1.07 1.69 1.18 0.63 0.49 0.35 0.18 0.58 1.03 0.80 0.67 0.24
0.85 2.10 1.05 0.28 0.06 0.16 0.41 0.28 0.16 0.14 0.20 0.06 0.03 0.08 0.05 0.16 0.06 0.08 0.08 0.08 0.04 0.04 0.05 0.05 0.03 0.03 0.17 0.00 0.00 0.00 0.03 0.05 0.02 0.02 0.12 0.12 0.20 0.02 0.03 0.02 0.03 0.10 0.10 0.30 0.20 0.34 0.20 0.05 0.01 0.24 0.16 0.27 0.16 0.08 0.02 0.00 0.00 0.01 0.08 0.02 0.01 0.02 0.01 0.06 0.09 0.10 0.04 0.09 0.14 0.19 0.36 0.79 0.61 0.41 0.64 0.48 0.97 1.60 1.41 1.12 1.04 0.93 1.08 1.36 1.04 0.58 0.47 0.83
1.39 1.17 0.74 0.67 0.17 0.21 0.64 0.67 0.24 0.21 0.20 0.15 0.15 0.16 0.13 0.07 0.05 0.05 0.07 0.12 0.02 0.01 0.01 0.02 0.01 0.09 0.00 0.00 0.00 0.00 0.01 0.03 0.15 0.06 0.03 0.12 0.36 0.02 0.02 0.01 0.01 0.11 0.02 0.01 0.01 0.18 0.11 0.33 0.08 0.13 0.35 0.37 0.42 0.39 0.34 0.14 0.11 0.03 0.02 0.03 0.02 0.00 0.19 0.13 0.03 0.04 0.06 0.08 0.08 0.13 0.27 0.42 0.48 0.37 0.39 0.32 0.34 0.42 0.75 1.08 0.74 0.54 0.67 0.72 0.60 0.67 0.52 0.76
1.35 0.74 0.46 0.35 0.81 0.91 0.30 0.21 0.23 0.29 0.21 0.16 0.08 0.24 0.14 0.27 0.07 0.04 0.03 0.05 0.01 0.01 0.05 0.04 0.01 0.03 0.01 0.00 0.02 0.01 0.03 0.02 0.05 0.10 0.06 0.18 0.25 0.09 0.02 0.05 0.02 0.02 0.00 0.00 0.03 0.10 0.20 0.30 0.34 0.27 0.31 0.52 0.35 0.28 0.18 0.12 0.10 0.09 0.24 0.12 0.12 0.03 0.00 0.07 0.17 0.23 0.12 0.07 0.05 0.21 0.19 0.40 0.45 0.55 0.28 0.29 0.36 0.53 0.38 0.35 0.28 0.52 0.45 0.38 0.38 0.49 0.46 0.76
1.07 0.85 0.10 0.21 0.24 0.36 0.63 0.34 0.23 0.29 0.38 0.18 0.48 0.11 0.17 0.12 0.22 0.17 0.08 0.11 0.04 0.18 0.07 0.09 0.02 0.03 0.02 0.02 0.03 0.04 0.05 0.03 0.04 0.05 0.06 0.27 0.11 0.07 0.03 0.08 0.16 0.02 0.00 0.03 0.05 0.11 0.21 0.13 0.15 0.50 0.22 0.28 0.20 0.20 0.14 0.05 0.20 0.17 0.18 0.12 0.07 0.08 0.06 0.05 0.02 0.12 0.22 0.12 0.28 0.51 0.32 0.20 0.39 0.31 0.25 0.23 0.23 0.28 0.39 0.41 0.28 0.30 0.25 0.24 0.15 0.18 0.13 0.19
1.05 0.58 0.22 0.12 0.29 0.29 0.34 0.85 0.25 0.29 0.18 0.23 0.36 0.19 0.20 0.23 0.27 0.41 0.14 0.05 0.03 0.05 0.12 0.13 0.01 0.01 0.01 0.01 0.05 0.04 0.11 0.08 0.05 0.05 0.16 0.14 0.02 0.11 0.23 0.04 0.17 0.12 0.02 0.03 0.00 0.13 0.39 0.22 0.19 0.14 0.33 0.18 0.18 0.09 0.15 0.17 0.11 0.22 0.27 0.32 0.34 0.15 0.17 0.07 0.09 0.09 0.15 0.11 0.46 0.43 0.47 0.28 0.28 0.23 0.24 0.27 0.19 0.26 0.20 0.32 0.42 0.32 0.24 0.27 0.29 0.22 0.13 0.07
1.18 0.31 0.49 0.07 0.22 0.31 0.39 0.46 0.50 0.43 0.41 0.32 0.33 0.21 0.25 0.20 0.26 0.13 0.09 0.19 0.11 0.23 0.11 0.14 0.04 0.03 0.02 0.01 0.05 0.09 0.10 0.16 0.03 0.08 0.15 0.41 0.33 0.38 0.30 0.21 0.11 0.07 0.18 0.14 0.04 0.02 0.14 0.26 0.36 0.31 0.37 0.54 0.43 0.22 0.18 0.27 0.37 0.13 0.11 0.11 0.15 0.19 0.30 0.25 0.08 0.06 0.17 0.18 0.13 0.18 0.06 0.10 0.36 0.26 0.23 0.30 0.22 0.33 0.36 0.21 0.23 0.28 0.18 0.14 0.29 0.15 0.17 0.11
1.03 1.05 0.40 0.07 0.22 0.04 0.10 0.23 0.37 0.53 0.61 0.43 0.24 0.24 0.22 0.19 0.25 0.13 0.07 0.15 0.28 0.21 0.11 0.25 0.07 0.08 0.04 0.02 0.06 0.23 0.21 0.15 0.12 0.09 0.16 0.30 0.31 0.45 0.91 0.48 0.91 0.27 0.04 0.14 0.07 0.15 0.12 0.40 0.11 0.31 0.45 0.39 0.46 0.25 0.26 0.35 0.34 0.29 0.15 0.15 0.15 0.15 0.15 0.18 0.23 0.29 0.16 0.21 0.16 0.20 0.02 0.15 0.33 0.23 0.58 0.73 0.39 1.08 0.95 0.60 0.51 0.53 0.44 0.29 0.36 0.29 0.14 0.14
0.61 0.52 0.29 0.31 0.33 0.19 0.18 0.20 0.25 0.44 0.80 0.55 0.59 0.30 0.21 0.17 0.29 0.15 0.12 0.05 0.10 0.16 0.13 0.21 0.05 0.14 0.23 0.48 0.08 0.12 0.09 0.08 0.11 0.18 0.18 0.22 0.23 0.25 0.14 0.41 0.12 0.79 0.88 0.71 0.41 1.21 0.11 0.75 0.15 0.39 0.37 0.37 0.32 0.24 0.24 0.43 0.35 0.26 0.22 0.25 0.16 0.17 0.25 0.23 0.23 0.22 0.21 0.50 0.46 0.34 0.07 0.13 0.43 0.28 0.19 0.65 0.45 0.23 0.48 0.39 0.21 0.25 0.69 0.63 0.53 0.42 0.54 0.52
0.40 0.09 0.19 0.33 0.52 0.19 0.28 0.14 0.17 0.22 0.41 0.37 0.49 0.55 0.53 0.39 0.30 0.24 0.18 0.04 0.23 0.08 0.15 0.02 0.19 0.27 0.11 0.27 0.17 0.08 0.10 0.09 0.06 0.07 0.20 0.09 0.10 0.07 0.15 0.13 0.07 0.06 0.09 0.19 0.41 0.59 0.41 0.26 0.38 0.64 0.28 0.66 0.47 0.23 0.26 0.27 0.37 0.62 0.35 0.18 0.22 0.29 0.20 0.18 0.16 0.09 0.17 0.25 0.67 0.67 0.37 0.24 0.23 0.23 0.16 0.30 0.21 0.19 0.15 0.31 0.69 0.49 0.39 0.49 0.58 0.28 0.11 0.09